This demonstration page uses our WeatherBlox Daily Observations layout. Learn more.

Left ArrowRight Arrow

Hourly Observations for September 5, 2022

Temp ( °F °C ) Dew Point ( °F °C ) Humidity (%) Winds ( mph kmh ) Pressure ( in mb ) Visibility ( mi km ) Precip ( " mm )
12:53 am 00:53 Clear 78 25.6 67 19.4 69 69 Calm 29.99 1016 10 16 0.00 0.00
1:53 am 01:53 Clear 76 24.4 66 18.9 71 71 E 6 9 29.98 1015 10 16 0.00 0.00
2:53 am 02:53 Clear 76 24.4 68 20 77 77 ENE 7 11 29.97 1015 10 16 0.00 0.00
3:53 am 03:53 Clear 75 23.9 67 19.4 76 76 ENE 6 9 29.97 1015 10 16 0.00 0.00
4:53 am 04:53 Mostly Cloudy 76 24.4 68 20 77 77 E 3 6 29.97 1015 10 16 0.00 0.00
5:29 am 05:29 Mostly Cloudy 76 24.4 66 18.9 71 71 NE 6 9 29.98 1015 10 16 0.00 0.00
5:53 am 05:53 Partly Cloudy 75 23.9 64 17.8 69 69 NE 7 11 29.98 1015 10 16 0.00 0.00
6:00 am 06:00 Cloudy 76 24.4 63 17.2 64 64 NE 7 11 29.99 1016 10 16 0.00 0.00
6:19 am 06:19 Partly Cloudy 74 23.3 63 17.2 69 69 ENE 6 9 29.99 1016 10 16 0.00 0.00
6:53 am 06:53 Mostly Cloudy 75 23.9 65 18.3 71 71 Calm 30.00 1016 10 16 0.00 0.00
7:53 am 07:53 Mostly Sunny 79 26.1 69 20.6 72 72 SSE 9 15 30.00 1016 10 16 0.00 0.00
8:49 am 08:49 Mostly Cloudy 81 27 72 22 74 74 S 9 15 30.01 1016 10 16 0.00 0.00
8:53 am 08:53 Partly Cloudy 81 27.2 71 21.7 72 72 SSW 10 17 30.01 1016 10 16 0.00 0.00
9:00 am 09:00 Cloudy 82 27.8 70 21.1 67 67 S 12 19 30.00 1016 10 16 0.00 0.00
9:36 am 09:36 Cloudy 80 26.7 70 21.1 71 71 S 12 19 30.00 1016 10 16 0.00 0.00
9:53 am 09:53 Partly Cloudy 81 27.2 71 21.7 72 72 S 12 19 29.99 1016 10 16 0.00 0.00
10:53 am 10:53 Partly Cloudy 83 28.3 72 22.2 70 70 SSW 10 17 29.98 1015 10 16 0.00 0.00
11:53 am 11:53 Mostly Cloudy 83 28.3 71 21.7 67 67 SSW 12 19 29.97 1015 10 16 0.00 0.00
12:53 pm 12:53 Partly Cloudy 83 28.3 70 21.1 65 65 WSW 12 19 29.95 1014 10 16 0.00 0.00
1:53 pm 13:53 Mostly Cloudy 84 28.9 69 20.6 61 61 SW 13 20 29.93 1014 10 16 0.00 0.00
2:53 pm 14:53 Partly Cloudy 84 28.9 69 20.6 61 61 SSW 16 26 29.91 1013 10 16 0.00 0.00
3:53 pm 15:53 Mostly Cloudy 81 27.2 70 21.1 69 69 SSW 13 20 29.92 1013 10 16 0.00 0.00
4:53 pm 16:53 Cloudy 80 26.7 69 20.6 69 69 S 13 20 29.92 1013 10 16 0.01 0.13
5:53 pm 17:53 Cloudy 76 24.4 66 18.9 71 71 ESE 13 20 29.93 1014 10 16 0.01 0.13
6:53 pm 18:53 Cloudy 76 24.4 68 20 77 77 S 7 11 29.95 1014 10 16 0.00 0.00
7:53 pm 19:53 Cloudy 77 25 69 20.6 77 77 SSE 6 9 29.97 1015 10 16 0.00 0.00
8:53 pm 20:53 Mostly Cloudy 77 25 68 20 74 74 SE 7 11 29.98 1015 10 16 0.00 0.00
9:53 pm 21:53 Clear 77 25 69 20.6 77 77 SE 7 11 29.98 1015 10 16 0.00 0.00
10:53 pm 22:53 Cloudy 77 25 70 21.1 79 79 ESE 6 9 29.99 1016 10 16 0.00 0.00
11:53 pm 23:53 Mostly Cloudy 77 25 70 21.1 79 79 Calm 29.98 1015 10 16 0.00 0.00

Powered by AerisWeather